Simultaneous Nadir Overpasses (SNOs) Predictions

Prediction of SNOs between LANDSAT-8 and METOP-B Satellite Orbit:

Table of predicted SNOs for the next 14.0 days since TLE Epoch: 7/29/2023
Index Date (LANDSAT-8) Time (LANDSAT-8) Lat,Lon (LANDSAT-8) SZA (LANDSAT-8 ) Date (METOP-B) Time (METOP-B) Lat,Lon (METOP-B) SZA (METOP-B ) Distance(km) Time Diff (sec)
1 07/31/2023 00:37:06 81.20,-148.05 64.92 07/31/2023 00:35:59 81.20,-148.03 64.89 0.40 67
2 07/31/2023 01:26:32 -81.22, 19.91 115.03 07/31/2023 01:26:38 -81.22, 20.02 115.01 2.04 6
3 08/02/2023 20:11:22 81.21, -81.44 65.65 08/02/2023 20:10:21 81.20, -81.56 65.61 2.20 61
4 08/02/2023 21:00:48 -81.23, 86.54 114.29 08/02/2023 21:01:00 -81.22, 86.51 114.29 0.74 12
5 08/05/2023 15:45:38 81.21, -15.00 66.40 08/05/2023 15:44:43 81.20, -15.10 66.37 1.75 55
6 08/05/2023 16:35:04 -81.23, 153.01 113.54 08/05/2023 16:35:22 -81.23, 152.99 113.54 0.50 18
7 08/08/2023 11:19:52 81.22, 51.65 67.22 08/08/2023 11:19:03 81.22, 51.75 67.21 1.75 49
8 08/08/2023 12:09:19 -81.22,-140.69 112.77 08/08/2023 12:09:43 -81.23,-140.52 112.74 2.97 24
9 08/11/2023 06:54:08 81.20, 117.77 67.99 08/11/2023 06:53:26 81.21, 117.84 67.99 1.46 42



Historial Predications of SNOs between LANDSAT-8 and METOP-B
